[[{"header":{"parameterUnit":"m.s-1","parameterCategory":1,"la1":30.2991,"la2":30.254,"lo1":-89.0895,"lo2":-89.0444,"dy":0.0017,"dx":0.0017,"nx":28,"ny":28,"refTime":"2024-03-10T03:00:00:Z","depth":0,"parameterNumber":2,"parameterNumberName":"U-component_of_WINDS"},"data":[0,0,0,0,0,0,0,0,0,0,0,0,0,0,0,0,0,0,0,0,0,0,0,0,0,0,0,0,0,0,0,0,0,0,0,0,0,0,0,0,0,0,0,0,0,0,0,0,0,0,0,0,0,0,0,0,0,0,-0.5449,-0.5449,0,-0.5417,-0.5416,-0.5416,-0.535,-0.5349,-0.5347,-0.5346,-0.5316,-0.5316,-0.5316,0,0,0,0,0,0,0,0,0,0,0,0,0,-0.5458,-0.5458,-0.5449,-0.5449,-0.5448,-0.5417,-0.5416,-0.5416,-0.535,-0.5349,-0.5347,-0.5346,-0.5316,-0.5316,-0.5316,0,0,0,0,0,0,0,0,0,0,0,0,0,-0.5443,-0.5458,-0.5449,-0.5412,-0.5408,-0.5417,-0.5416,-0.5416,-0.5351,-0.5349,-0.5347,-0.5345,-0.5315,-0.5316,-0.5317,-0.536,0,0,-0.5318,-0.5319,0,0,0,0,0,0,0,0,-0.5444,-0.5442,-0.5418,-0.5414,-0.541,-0.5385,-0.5408,-0.5397,-0.5351,-0.5373,-0.5346,-0.5344,-0.5341,-0.5339,-0.5337,-0.5358,-0.5357,-0.5318,-0.5319,-0.5319,-0.5319,0,0,0,0,0,0,0,-0.5445,-0.5443,-0.5436,-0.5417,-0.5413,-0.5398,-0.5393,-0.5406,-0.5368,-0.5371,-0.5366,-0.5363,-0.5338,-0.5337,-0.5336,-0.5357,-0.5318,-0.5319,-0.5319,-0.532,-0.5413,-0.5415,0,0,0,0,0,0,-0.5451,-0.5445,-0.5437,-0.5435,-0.5422,-0.5399,-0.5394,-0.5395,-0.5368,-0.5362,-0.5364,-0.536,-0.5337,-0.5335,-0.5335,-0.5384,-0.5319,-0.532,-0.532,-0.5411,-0.5413,-0.5415,0,0,0,0,0,0,-0.5451,-0.5451,-0.5439,-0.5439,-0.5436,-0.5401,-0.5403,-0.5396,-0.5394,-0.5363,-0.5356,-0.537,-0.5335,-0.5334,-0.5354,-0.5382,-0.532,-0.5321,-0.5408,-0.5411,-0.5414,-0.5483,0,0,0,0,0,0,-0.5452,-0.5451,-0.5466,-0.5439,-0.5436,-0.5458,-0.5404,-0.5397,-0.5395,-0.5389,-0.5366,-0.5361,-0.5334,-0.5354,-0.5355,-0.5382,-0.5321,-0.5405,-0.541,-0.5413,-0.5479,-0.5489,-0.5497,0,0,0,0,0,-0.5452,-0.5488,-0.5468,-0.5467,-0.5454,-0.5459,-0.5458,-0.5425,-0.5398,-0.5413,-0.5393,-0.5361,-0.5379,-0.5356,-0.5357,-0.5385,-0.5404,-0.5408,-0.5413,-0.5474,-0.5487,-0.5497,0,0,0,0,0,0,-0.552,-0.5483,-0.5461,-0.5488,-0.5477,-0.5448,-0.5467,-0.5439,-0.5436,-0.543,-0.5391,-0.5386,-0.5412,-0.54,-0.5376,-0.5426,-0.5386,-0.5391,-0.5433,-0.5444,-0.5453,-0.5456,-0.5322,0,0,0,0,0,-0.5538,-0.5544,-0.5512,-0.554,-0.5535,-0.5502,-0.5503,-0.5479,-0.5466,-0.5462,-0.5443,-0.5433,-0.5436,-0.5439,-0.5441,-0.5476,-0.5471,-0.5496,-0.5505,-0.5513,-0.5518,-0.5538,-0.5549,-0.5431,-0.5431,-0.5431,0,0,-0.5575,-0.5556,-0.5562,-0.5553,-0.5541,-0.555,-0.5499,-0.551,-0.5516,-0.5464,-0.5482,-0.5468,-0.5454,-0.5483,-0.5494,-0.5474,-0.555,-0.5519,-0.5526,-0.5527,-0.5544,-0.5555,-0.5565,-0.5434,-0.5434,-0.5433,0,0,-0.5648,-0.5633,-0.5655,-0.5645,-0.5628,-0.5606,-0.5611,-0.5587,-0.5575,-0.5592,-0.5554,-0.5561,-0.5567,-0.5559,-0.5556,-0.5627,-0.5598,-0.5628,-0.5677,-0.5697,-0.5706,-0.5714,-0.574,-0.575,-0.5633,-0.5634,-0.5634,0,-0.5697,-0.5707,-0.567,-0.5683,-0.5681,-0.5633,-0.5656,-0.5648,-0.5633,-0.5633,-0.561,-0.5617,-0.5604,-0.5631,-0.5648,-0.5647,-0.5652,-0.5631,-0.5707,-0.5715,-0.5722,-0.5746,-0.5756,-0.5637,-0.5637,-0.5637,-0.5636,0,-0.5768,-0.5776,-0.5796,-0.5782,-0.5781,-0.5799,-0.5766,-0.5771,-0.5747,-0.5728,-0.5746,-0.573,-0.5727,-0.5731,-0.5708,-0.5755,-0.5743,-0.5714,-0.5674,-0.5738,-0.576,-0.5769,-0.5643,-0.5642,-0.564,-0.5639,0,0,-0.5882,-0.5848,-0.5856,-0.585,-0.5828,-0.5834,-0.585,-0.5847,-0.5852,-0.5843,-0.5857,-0.5864,-0.5837,-0.5833,-0.5809,-0.5826,-0.5884,-0.5795,-0.5794,-0.5813,-0.5936,-0.5958,-0.597,-0.5864,-0.5866,-0.5867,-0.5937,0,-0.5951,-0.5976,-0.5944,-0.5976,-0.5984,-0.5939,-0.5953,-0.5942,-0.5925,-0.593,-0.5911,-0.5917,-0.5881,-0.5878,-0.5893,-0.5874,-0.5908,-0.5868,-0.5878,-0.5879,-0.5883,-0.5981,-0.6005,-0.6071,-0.5946,-0.5947,-0.5948,0,-0.6034,-0.6029,-0.6062,-0.6039,-0.6041,-0.6054,-0.6049,-0.6054,-0.6041,-0.6027,-0.6024,-0.5995,-0.601,-0.5971,-0.5992,-0.5966,-0.5968,-0.5959,-0.5961,-0.5961,-0.5918,-0.5985,-0.6092,-0.6102,-0.5962,-0.596,-0.596,0,-0.6115,-0.6117,-0.6137,-0.6133,-0.6106,-0.6117,-0.6106,-0.6091,-0.6092,-0.6088,-0.6088,-0.6086,-0.6085,-0.6085,-0.6057,-0.603,-0.6083,-0.604,-0.6073,-0.6074,-0.6086,-0.6086,-0.6196,-0.6086,-0.6086,-0.6086,-0.6086,0,-0.6195,-0.6218,-0.6173,-0.6186,-0.621,-0.6173,-0.6198,-0.6184,-0.6171,-0.6181,-0.6142,-0.6152,-0.6114,-0.612,-0.6098,-0.612,-0.612,-0.611,-0.6104,-0.6114,-0.6116,-0.6116,-0.6111,-0.6089,-0.6088,-0.6088,-0.6087,0,-0.629,-0.6261,-0.628,-0.6254,-0.6248,-0.6267,-0.6244,-0.6256,-0.6236,-0.6249,-0.625,-0.6219,-0.6225,-0.6196,-0.6197,-0.6182,-0.6216,-0.6202,-0.622,-0.6216,-0.6251,-0.6248,-0.6365,-0.6379,-0.626,-0.6261,-0.6262,0,-0.6344,-0.636,-0.6335,-0.6338,-0.633,-0.6336,-0.6336,-0.6301,-0.6303,-0.6289,-0.6303,-0.6305,-0.6305,-0.6317,-0.6295,-0.6296,-0.6282,-0.6323,-0.6282,-0.6292,-0.6284,-0.6284,-0.6286,-0.6332,-0.6333,-0.6335,-0.6336,0,-0.6442,-0.6427,-0.6428,-0.6425,-0.6426,-0.6422,-0.6415,-0.642,-0.6382,-0.6387,-0.6392,-0.6392,-0.6392,-0.6396,-0.6392,-0.6383,-0.6354,-0.6349,-0.6356,-0.6367,-0.6378,-0.6373,-0.6245,-0.6346,-0.6345,-0.6344,-0.6344,-0.6343,-0.6519,-0.6532,-0.6516,-0.6519,-0.651,-0.6505,-0.6514,-0.6495,-0.6499,-0.6496,-0.6475,-0.6485,-0.6472,-0.6464,-0.6458,-0.6465,-0.6446,-0.6457,-0.646,-0.6463,-0.647,-0.6376,-0.6464,-0.6464,-0.6464,-0.6463,-0.6463,0,-0.6616,-0.6604,-0.6607,-0.6599,-0.6601,-0.6572,-0.6563,-0.6568,-0.6576,-0.6567,-0.6568,-0.6574,-0.6577,-0.6556,-0.6557,-0.6567,-0.6554,-0.6569,-0.6568,-0.6567,-0.6486,-0.648,-0.6579,-0.6579,-0.6579,-0.6579,-0.6579,-0.6579,-0.6667,-0.6687,-0.6671,-0.6686,-0.6674,-0.6682,-0.668,-0.6675,-0.6667,-0.6676,-0.6678,-0.6664,-0.665,-0.665,-0.6652,-0.6646,-0.6648,-0.6668,-0.6658,-0.6583,-0.6572,-0.6561,-0.6555,-0.6669,-0.6669,-0.6737,-0.6738,-0.6738]},{"header":{"parameterUnit":"m.s-1","parameterCategory":1,"la1":30.2991,"la2":30.254,"lo1":-89.0895,"lo2":-89.0444,"dy":0.0017,"dx":0.0017,"nx":28,"ny":28,"refTime":"2024-03-10T03:00:00:Z","depth":0,"parameterNumber":3,"parameterNumberName":"V-component_of_WINDS"},"data":[0,0,0,0,0,0,0,0,0,0,0,0,0,0,0,0,0,0,0,0,0,0,0,0,0,0,0,0,0,0,0,0,0,0,0,0,0,0,0,0,0,0,0,0,0,0,0,0,0,0,0,0,0,0,0,0,0,0,2.6424,2.6424,0,2.6443,2.6443,2.6443,2.642,2.6419,2.6418,2.6418,2.6436,2.6437,2.6439,0,0,0,0,0,0,0,0,0,0,0,0,0,2.6365,2.6366,2.6423,2.6424,2.6424,2.6443,2.6443,2.6443,2.642,2.6419,2.6418,2.6417,2.6436,2.6437,2.6439,0,0,0,0,0,0,0,0,0,0,0,0,0,2.6388,2.6367,2.6423,2.6415,2.6414,2.6442,2.6443,2.6443,2.642,2.6419,2.6418,2.6417,2.6435,2.6437,2.6439,2.6476,0,0,2.6445,2.6446,0,0,0,0,0,0,0,0,2.6387,2.639,2.6416,2.6416,2.6415,2.6428,2.6429,2.6454,2.6421,2.6418,2.6418,2.6416,2.6434,2.6436,2.6442,2.6477,2.6478,2.6445,2.6446,2.6447,2.6447,0,0,0,0,0,0,0,2.6385,2.6389,2.6431,2.6416,2.6416,2.6409,2.6411,2.6434,2.6433,2.6418,2.6417,2.6419,2.6434,2.6441,2.6443,2.6478,2.6445,2.6447,2.6448,2.6449,2.6542,2.6543,0,0,0,0,0,0,2.6385,2.6388,2.643,2.6432,2.6397,2.6411,2.6413,2.6425,2.6433,2.6433,2.642,2.6418,2.6438,2.6441,2.6443,2.6486,2.6447,2.6449,2.645,2.6541,2.6542,2.6544,0,0,0,0,0,0,2.6384,2.6389,2.643,2.6409,2.6414,2.6414,2.6427,2.6426,2.6433,2.6434,2.6434,2.6428,2.6437,2.6441,2.6468,2.6486,2.645,2.6451,2.6539,2.6541,2.6543,2.6572,0,0,0,0,0,0,2.6382,2.6389,2.6403,2.641,2.6415,2.6454,2.6428,2.6427,2.6436,2.6434,2.6441,2.6441,2.6436,2.6465,2.647,2.6488,2.6453,2.6537,2.654,2.6542,2.657,2.6575,2.658,0,0,0,0,0,2.638,2.6411,2.6404,2.6409,2.6434,2.6456,2.6459,2.6453,2.6438,2.6452,2.6453,2.6441,2.6484,2.6468,2.6473,2.6492,2.6536,2.6539,2.6542,2.6567,2.6574,2.6579,0,0,0,0,0,0,2.6407,2.6412,2.6404,2.6438,2.6447,2.6452,2.647,2.646,2.6473,2.647,2.6462,2.6464,2.6492,2.6495,2.6478,2.6528,2.6507,2.6511,2.6525,2.6531,2.6536,2.6534,2.6454,0,0,0,0,0,2.6416,2.6434,2.6438,2.6467,2.6472,2.647,2.6479,2.6474,2.6482,2.6486,2.6488,2.6496,2.6511,2.6522,2.6536,2.657,2.657,2.6586,2.6591,2.6595,2.6598,2.6615,2.6621,2.6554,2.6553,2.6553,0,0,2.6437,2.6442,2.6454,2.6473,2.6479,2.6496,2.6473,2.6493,2.6506,2.6489,2.6514,2.6516,2.6525,2.6555,2.6569,2.6558,2.6617,2.6599,2.6602,2.6603,2.6619,2.6625,2.6631,2.6556,2.6555,2.6555,0,0,2.6483,2.6489,2.6513,2.652,2.6529,2.6527,2.6533,2.6539,2.654,2.6566,2.6552,2.6567,2.6594,2.66,2.6606,2.6653,2.6642,2.6658,2.6683,2.67,2.6705,2.671,2.6725,2.673,2.6661,2.6661,2.6662,0,2.6507,2.6533,2.6527,2.6548,2.6556,2.6541,2.6565,2.6571,2.6584,2.659,2.6578,2.661,2.6615,2.6646,2.6657,2.6664,2.6669,2.6656,2.6705,2.671,2.6714,2.6728,2.6734,2.6663,2.6663,2.6663,2.6663,0,2.6561,2.658,2.6599,2.6611,2.6622,2.6644,2.664,2.6651,2.6645,2.6644,2.6669,2.6675,2.6689,2.6696,2.669,2.6725,2.6718,2.6706,2.6685,2.6722,2.6735,2.6741,2.6666,2.6665,2.6665,2.6664,0,0,2.6624,2.6633,2.664,2.6644,2.6653,2.6667,2.6688,2.6701,2.671,2.672,2.6736,2.6759,2.6747,2.6754,2.6749,2.6763,2.6798,2.6749,2.6749,2.6757,2.6835,2.6843,2.685,2.6791,2.6792,2.6793,2.6834,0,2.6669,2.6705,2.67,2.6735,2.6751,2.6736,2.6754,2.6761,2.6761,2.6774,2.6774,2.6789,2.6773,2.6777,2.6791,2.6791,2.6813,2.6788,2.6805,2.6806,2.6802,2.6857,2.6866,2.6904,2.6839,2.684,2.6841,0,2.6726,2.6737,2.6773,2.6777,2.6784,2.68,2.6811,2.6825,2.6831,2.683,2.6838,2.683,2.6849,2.6829,2.6856,2.6838,2.6845,2.6846,2.6847,2.6847,2.6824,2.6857,2.6916,2.6922,2.6849,2.6848,2.6848,0,2.6766,2.679,2.6814,2.6819,2.6825,2.6836,2.684,2.6845,2.6853,2.6863,2.6868,2.688,2.6887,2.6896,2.6891,2.6877,2.6917,2.6897,2.6916,2.6916,2.6924,2.6923,2.6984,2.6931,2.6931,2.6931,2.6931,0,2.6815,2.6837,2.6832,2.6847,2.6871,2.6864,2.6888,2.6889,2.6894,2.6908,2.6897,2.691,2.6903,2.6916,2.6912,2.6934,2.6937,2.6936,2.6934,2.6936,2.6936,2.6939,2.6936,2.6932,2.6932,2.6932,2.6931,0,2.6863,2.6861,2.6886,2.689,2.6891,2.6908,2.6911,2.6924,2.6923,2.6941,2.6945,2.6943,2.6957,2.6953,2.6969,2.6966,2.6993,2.6989,2.699,2.6989,2.7007,2.7005,2.707,2.7078,2.7022,2.7022,2.7023,0,2.6894,2.6911,2.6916,2.6925,2.6928,2.6943,2.6951,2.6945,2.6953,2.6961,2.6973,2.6987,2.6997,2.702,2.7019,2.7031,2.7026,2.7048,2.7027,2.7028,2.7024,2.7023,2.7023,2.7052,2.7052,2.7053,2.7053,0,2.6949,2.6946,2.6959,2.697,2.6979,2.6988,2.6996,2.7003,2.6997,2.7008,2.7022,2.703,2.7045,2.7058,2.7068,2.707,2.706,2.706,2.7065,2.7066,2.7065,2.7064,2.7,2.7058,2.7058,2.7057,2.7057,2.7057,2.6988,2.7002,2.7007,2.702,2.7025,2.7032,2.7044,2.7044,2.7056,2.7068,2.7064,2.708,2.7085,2.7097,2.7101,2.7113,2.7104,2.7112,2.7113,2.7115,2.7116,2.7065,2.7115,2.7115,2.7115,2.7115,2.7115,0,2.7041,2.7043,2.7056,2.7066,2.7076,2.7066,2.7074,2.7083,2.7097,2.7103,2.7113,2.7128,2.714,2.7141,2.7152,2.7161,2.7156,2.7164,2.7162,2.7163,2.7124,2.7118,2.7167,2.7167,2.7167,2.7167,2.7167,2.7167,2.7069,2.7091,2.7089,2.7112,2.7114,2.713,2.7134,2.714,2.7145,2.7163,2.7172,2.7173,2.7176,2.7187,2.7197,2.7197,2.7201,2.7209,2.7207,2.7171,2.7166,2.7161,2.7155,2.7211,2.7211,2.7244,2.7245,2.7245]}]]